Tiruchchirapalli, India

3:20 PM IST on December 06, 2016 (GMT +0530)
Tiruchirappalli

Weather History for VOTR - April, 2013

Change the Weather History Date:

Saturday, April 20, 2013

  Actual Average Record
Temperature  
Mean Temperature 93 °F -  
Max Temperature 106 °F 95 °F 106 °F (2013)
Min Temperature 80 °F 80 °F 75 °F (2014)
Cooling Degree Days 28    
Growing Degree Days 43 (Base 50)    
Moisture  
Dew Point 71 °F    
Average Humidity 52    
Maximum Humidity 84    
Minimum Humidity 17    
Precipitation  
Precipitation 0.00 in - - ()
Sea Level Pressure  
Sea Level Pressure 29.72 in    
Wind  
Wind Speed 4 mph ()    
Max Wind Speed 17 mph    
Max Gust Speed -    
Visibility 3.8 miles    
Events      
Averages and records for this station are not official NWS values.
T = Trace of Precipitation, MM = Missing Value Source: Averaged Metar Reports

Daily Weather History Graph

Daily Weather History Graph

Search for Another Location

Airport or City:

Trip Planner

Search our weather history database for the weather conditions in past years. The results will help you decide how hot, cold, wet, or windy it might be!

Date:

Astronomy

Apr. 20, 2013 Rise Set
Actual Time 6:01 AM IST 6:26 PM IST
Civil Twilight 5:40 AM IST 6:48 PM IST
Nautical Twilight 5:15 AM IST 7:13 PM IST
Astronomical Twilight 4:49 AM IST 7:38 PM IST
Moon 1:40 PM IST (4/20) 1:33 AM IST (4/20)
Length of Visible Light 13h 07m
Length of Day
12h 24m
Waxing Gibbous, 67% of the Moon is Illuminated
Apr 20
Waxing Gibbous
Apr 26
Full
May 2
Last Quarter
May 10
New
May 18
First Quarter

Hourly Weather History & Observations

Time (IST) Temp. Heat Index Dew Point Humidity Pressure Visibility Wind Dir Wind Speed Gust Speed Precip Events Conditions
12:10 AM 86.0 °F 91.8 °F 71.6 °F 62% 29.74 in 3.7 mi Calm Calm - N/A   Unknown
12:40 AM 86.0 °F 91.8 °F 71.6 °F 62% 29.74 in 3.7 mi SSE 2.3 mph - N/A   Unknown
1:10 AM 84.2 °F 89.6 °F 71.6 °F 66% 29.74 in 3.7 mi Calm Calm - N/A   Unknown
1:40 AM 84.2 °F 89.6 °F 71.6 °F 66% 29.74 in 3.7 mi Calm Calm - N/A   Unknown
2:10 AM 84.2 °F 89.6 °F 71.6 °F 66% 29.74 in 3.7 mi Calm Calm - N/A   Unknown
2:30 AM 83 °F - 74 °F 68% 29.72 in 2 mi Calm Calm - -   Haze
2:40 AM 84.2 °F 90.9 °F 73.4 °F 70% 29.71 in 3.7 mi Variable 3.5 mph - N/A   Unknown
3:10 AM 82.4 °F 88.2 °F 73.4 °F 74% 29.71 in 3.7 mi ESE 3.5 mph - N/A   Unknown
3:40 AM 82.4 °F 88.2 °F 73.4 °F 74% 29.71 in 3.7 mi SE 2.3 mph - N/A   Unknown
4:40 AM 82.4 °F 88.2 °F 73.4 °F 74% 29.71 in 3.1 mi SSE 3.5 mph - N/A   Haze
5:10 AM 82.4 °F 88.2 °F 73.4 °F 74% 29.71 in 3.1 mi SSE 3.5 mph - N/A   Haze
5:30 AM 81 °F - 75 °F 77% 29.72 in 1 mi South 2.3 mph - -   Haze
5:40 AM 80.6 °F 86.2 °F 75.2 °F 84% 29.71 in 3.1 mi South 3.5 mph - N/A   Haze
6:40 AM 82.4 °F 89.5 °F 75.2 °F 79% 29.74 in 1.6 mi South 3.5 mph - N/A   Haze
7:10 AM 84.2 °F 92.3 °F 75.2 °F 74% 29.74 in 1.6 mi South 4.6 mph - N/A   Haze
8:10 AM 86.0 °F 95.1 °F 75.2 °F 70% 29.77 in 2.5 mi South 5.8 mph - N/A   Haze
8:30 AM 90 °F - 71 °F 44% 29.77 in 2 mi SSW 6.9 mph - -   Haze
8:40 AM 89.6 °F 96.2 °F 71.6 °F 55% 29.77 in 2.5 mi SW 6.9 mph - N/A   Haze
9:10 AM 91.4 °F 98.4 °F 71.6 °F 52% 29.77 in 2.5 mi SW 6.9 mph - N/A   Haze
9:40 AM 91.4 °F 100.1 °F 73.4 °F 55% 29.80 in 2.5 mi SW 6.9 mph - N/A   Haze
10:10 AM 95.0 °F 103.2 °F 71.6 °F 47% 29.77 in 2.5 mi SSW 6.9 mph - N/A   Haze
11:10 AM 96.8 °F 101.8 °F 68.0 °F 39% 29.77 in 3.7 mi South 5.8 mph - N/A   Scattered Clouds
11:30 AM 100 °F - 66 °F 24% 29.77 in 2 mi WSW 4.6 mph - -   Haze
11:40 AM 100.4 °F 106.3 °F 68.0 °F 35% 29.77 in 5.0 mi SW 8.1 mph - N/A   Scattered Clouds
12:10 PM 102.2 °F 108.4 °F 68.0 °F 33% 29.74 in 5.0 mi SW 6.9 mph - N/A   Scattered Clouds
12:40 PM 102.2 °F 108.4 °F 68.0 °F 33% 29.74 in 5.0 mi SSW 8.1 mph - N/A   Scattered Clouds
1:10 PM 102.2 °F 108.4 °F 68.0 °F 33% 29.71 in 6.2 mi Calm Calm - N/A   Scattered Clouds
1:40 PM 104.0 °F 108.9 °F 66.2 °F 29% 29.71 in 6.2 mi SSE 6.9 mph - N/A   Scattered Clouds
2:10 PM 104.0 °F 108.9 °F 66.2 °F 29% 29.68 in 6.2 mi SSW 6.9 mph - N/A   Scattered Clouds
2:30 PM 105 °F - 64 °F 17% 29.66 in 2 mi SSW 3.5 mph - -   Haze
2:40 PM 105.8 °F 111.5 °F 66.2 °F 28% 29.68 in 6.2 mi West 3.5 mph - N/A   Scattered Clouds
3:10 PM 105.8 °F 111.5 °F 66.2 °F 28% 29.65 in 6.2 mi Variable 3.5 mph - N/A   Scattered Clouds
3:40 PM 104.0 °F 108.9 °F 66.2 °F 29% 29.65 in 6.2 mi SSE 5.8 mph - N/A   Scattered Clouds
4:10 PM 104.0 °F 108.9 °F 66.2 °F 29% 29.65 in 6.2 mi South 4.6 mph - N/A   Scattered Clouds
4:40 PM 104.0 °F 110.5 °F 68.0 °F 31% 29.65 in 6.2 mi SE 8.1 mph - N/A   Partly Cloudy
5:10 PM 102.2 °F 110.0 °F 69.8 °F 35% 29.65 in 6.2 mi SE 17.3 mph - N/A   Partly Cloudy
5:30 PM 100 °F - 73 °F 32% 29.63 in 6 mi SE 16.1 mph - -   Scattered Clouds
5:40 PM 100.4 °F 111.9 °F 73.4 °F 42% 29.65 in 6.2 mi SSE 16.1 mph - N/A   Partly Cloudy
6:10 PM 96.8 °F 109.6 °F 75.2 °F 50% 29.65 in 5.0 mi SSE 15.0 mph - N/A   Partly Cloudy
6:40 PM 95.0 °F 107.4 °F 75.2 °F 53% 29.68 in 3.7 mi SSE 13.8 mph - N/A   Partly Cloudy
7:10 PM 91.4 °F 100.1 °F 73.4 °F 55% 29.68 in 3.7 mi SSE 11.5 mph - N/A   Partly Cloudy
7:40 PM 91.4 °F 100.1 °F 73.4 °F 55% 29.71 in 3.7 mi SSE 9.2 mph - N/A   Partly Cloudy
8:10 PM 91.4 °F 100.1 °F 73.4 °F 55% 29.71 in 3.7 mi SSE 10.4 mph - N/A   Partly Cloudy
8:30 PM 89 °F - 71 °F 47% 29.70 in 2 mi SE 9.2 mph - -   Haze
8:40 PM 89.6 °F 98.2 °F 73.4 °F 59% 29.71 in 3.7 mi SSE 8.1 mph - N/A   Partly Cloudy
9:10 PM 89.6 °F 98.2 °F 73.4 °F 59% 29.74 in 3.7 mi South 6.9 mph - N/A   Partly Cloudy
9:40 PM 87.8 °F 93.8 °F 71.6 °F 58% 29.74 in 3.7 mi South 11.5 mph - N/A   Partly Cloudy
10:10 PM 87.8 °F 95.6 °F 73.4 °F 62% 29.74 in 3.7 mi SSE 8.1 mph - N/A   Partly Cloudy
10:40 PM 87.8 °F 95.6 °F 73.4 °F 62% 29.77 in 3.7 mi SSE 8.1 mph - N/A   Partly Cloudy
11:10 PM 87.8 °F 95.6 °F 73.4 °F 62% 29.77 in 3.7 mi South 4.6 mph - N/A   Partly Cloudy
11:30 PM 87 °F - 74 °F 56% 29.76 in 2 mi NE 4.6 mph - -   Haze
11:40 PM 86.0 °F 95.1 °F 75.2 °F 70% 29.77 in 3.7 mi South 4.6 mph - N/A   Partly Cloudy